Theta_e
312 316 317 318 317 317 315 316 318 318 312 312 314 314 314 313 313 313 312 312 309 305 307 306 305 303 301 300 299 298 297 297 296 296 295 295 295 295 295 296 296 294 293 293
314 315 317 313 313 314 315 317 319 317 310 309 313 312 312 313 312 312 312 313 311 306 303 302 303 302 302 300 298 297 297 296 296 295 295 295 295 295 295 295 294 293 292 292
315 316 310 312 313 314 315 317 318 316 311 309 308 313 311 311 308 309 310 309 309 306 304 301 303 303 301 299 298 297 297 296 296 294 294 294 294 294 294 294 293 293 293 292
313 311 312 313 314 314 317 314 313 312 312 316 309 315 315 312 311 311 312 310 307 309 307 304 304 304 302 301 298 297 296 295 294 293 293 293 293 293 293 293 293 292 291 290
315 310 311 314 315 312 316 308 310 309 311 309 314 312 313 307 310 312 313 313 309 310 309 309 308 306 304 300 299 297 295 294 293 292 292 291 292 292 292 292 292 291 290 290
312 306 309 313 305 307 305 308 307 305 308 314 314 313 313 313 312 312 313 311 310 310 310 308 306 303 301 300 299 296 294 294 293 291 291 291 291 291 291 291 290 289 289 289
311 310 307 306 310 306 307 313 317 321 318 318 309 310 312 312 312 312 314 314 309 308 309 308 307 305 303 303 300 296 294 293 292 291 290 290 290 290 290 289 289 289 288 288
315 315 308 307 313 316 310 315 320 324 318 318 306 311 314 312 311 311 307 308 307 307 307 308 308 306 305 304 300 297 295 293 291 290 289 290 290 290 290 289 288 287 287 288
314 315 305 304 305 310 309 312 312 317 305 314 315 316 314 311 309 307 307 306 306 307 309 309 308 307 305 305 304 301 296 293 291 290 289 289 289 289 289 289 288 287 287 287
314 314 307 302 303 302 306 307 312 313 320 319 315 315 314 314 312 310 308 307 308 309 308 309 309 307 306 306 303 298 295 294 292 290 289 289 289 289 289 288 287 287 287 287
311 313 309 305 307 310 305 309 307 309 313 316 316 315 310 311 312 311 311 310 310 309 309 309 310 309 306 304 303 300 295 293 291 289 289 289 289 289 288 287 287 287 287 287
311 313 315 313 304 302 308 310 310 312 313 311 314 315 311 311 311 310 311 309 310 310 309 309 309 309 307 305 302 300 294 293 291 289 288 288 289 288 287 287 287 287 287 286
309 312 316 314 306 301 306 306 307 311 312 313 315 314 312 312 310 308 309 310 309 310 309 309 308 308 307 303 301 298 293 292 290 289 288 288 288 288 287 287 287 287 286 286
310 313 314 313 313 307 308 307 307 308 312 312 312 312 312 312 311 312 310 307 307 308 308 309 308 307 305 302 299 295 292 291 290 288 288 288 288 287 287 287 287 287 286 286
310 313 313 314 314 313 312 310 308 308 309 311 312 312 312 312 311 311 310 309 309 309 306 307 307 306 303 300 297 294 292 291 289 288 288 287 287 287 287 287 287 286 286 285
306 313 312 312 311 311 312 311 312 311 311 310 309 309 309 310 309 309 309 308 308 308 307 306 306 305 304 302 299 295 292 290 288 287 287 287 287 286 287 287 286 286 285 284
308 310 312 314 313 312 313 312 311 311 311 311 311 311 311 310 310 310 309 309 307 307 307 307 306 306 306 304 300 296 292 289 288 287 287 287 286 287 287 286 286 285 283 282
311 310 311 313 313 314 312 311 311 311 311 311 310 311 311 310 310 309 309 309 308 308 307 306 306 306 305 302 297 292 291 288 287 287 287 287 286 287 286 285 285 283 282 281
310 311 312 313 313 312 309 310 309 309 310 309 309 309 309 309 308 308 308 307 307 307 307 307 307 304 302 300 295 292 289 287 286 286 286 286 286 286 285 284 283 283 282 280
309 310 311 312 313 315 312 310 309 306 308 309 308 308 308 307 308 309 309 308 308 308 308 307 305 302 300 298 297 293 288 287 286 286 286 286 286 285 284 283 283 281 280 279
310 310 311 312 313 313 311 307 306 309 311 310 309 309 308 308 308 309 308 306 307 307 307 307 307 302 299 295 292 290 287 286 286 286 286 286 285 284 283 283 282 280 278 278
313 312 312 311 312 313 310 310 309 311 311 310 310 309 308 308 307 307 307 307 305 306 306 305 304 300 295 293 290 287 286 285 285 285 285 285 284 283 283 282 280 279 278 277
313 313 313 312 312 311 310 310 309 309 310 311 310 310 308 307 306 308 307 308 308 304 303 301 301 298 293 290 288 287 285 285 285 285 285 284 283 282 281 280 279 278 276 276
310 311 312 312 311 311 310 310 310 310 308 308 309 309 308 307 307 308 308 307 307 306 301 297 296 292 290 285 286 286 285 285 284 285 284 283 281 280 280 279 278 277 275 275
305 304 306 306 305 307 310 310 310 310 309 308 308 307 307 306 305 306 306 307 307 305 300 295 292 289 288 285 286 284 285 285 285 285 284 282 281 279 278 278 277 276 274 274
300 304 306 308 307 307 308 308 307 306 307 308 309 309 309 309 307 305 306 306 304 304 300 293 289 288 287 284 283 284 284 285 285 284 283 281 279 277 277 276 275 274 273 273
Wind_Speed
1 6 16 17 17 13 7 8 16 15 4 5 16 20 25 33 30 36 36 32 27 30 28 32 38 41 42 41 38 36 34 31 27 25 24 23 20 17 14 12 12 13 16 19
3 15 17 0 6 9 8 13 20 13 2 6 14 21 24 23 32 34 35 33 24 23 22 28 36 41 45 44 41 39 36 33 30 29 28 27 23 20 17 14 12 14 17 19
16 9 2 8 8 11 11 17 14 10 6 7 12 17 7 8 14 20 31 27 20 22 22 26 33 40 45 47 45 43 38 35 33 32 31 29 26 22 17 14 14 16 17 20
9 3 8 7 11 12 13 9 11 8 5 11 4 19 11 9 11 13 31 19 20 21 21 24 27 35 44 48 46 43 40 37 35 33 32 30 27 22 18 17 16 17 18 20
6 8 9 10 9 11 5 2 4 3 8 6 12 10 9 2 7 18 20 16 20 22 21 21 25 28 33 41 46 43 41 39 37 35 32 30 27 22 20 18 17 18 18 20
7 1 5 4 3 1 9 3 2 1 3 9 16 14 9 5 6 8 13 13 14 18 18 18 19 20 26 33 42 44 43 42 39 37 33 30 26 22 20 19 18 18 20 21
4 7 3 4 4 2 5 4 6 6 5 12 3 8 20 15 14 13 19 13 13 15 16 17 20 21 23 28 35 46 47 45 42 38 34 30 25 22 20 19 19 21 22 22
6 14 13 12 15 7 12 8 6 11 13 21 7 11 14 10 17 25 14 15 12 15 16 18 19 21 23 26 31 43 48 47 43 38 35 30 25 22 20 19 21 21 23 24
8 16 3 1 1 4 8 8 3 3 2 7 12 24 9 7 10 9 18 17 22 22 20 21 21 23 22 24 30 37 48 48 45 40 35 30 26 22 20 21 20 21 23 26
3 10 3 3 2 1 4 4 4 3 6 16 24 29 18 10 15 9 11 19 24 22 22 24 23 24 24 24 28 35 45 50 46 40 35 30 26 21 20 19 19 21 24 28
3 6 3 5 12 16 6 6 5 3 5 9 18 18 3 5 5 11 13 21 18 22 28 26 23 25 26 26 30 35 44 50 49 42 36 31 25 22 19 18 20 22 25 30
8 3 10 21 3 2 9 15 18 9 11 9 13 26 8 5 4 4 8 16 15 14 22 25 25 27 30 32 34 39 44 51 50 43 37 30 26 21 18 18 19 23 26 29
10 5 7 13 5 2 8 10 10 17 15 29 13 23 16 19 6 7 11 17 19 23 28 28 29 33 37 36 38 41 45 50 51 44 36 31 25 21 19 17 20 22 25 29
15 7 13 20 22 1 5 14 19 23 18 22 25 30 36 34 23 23 26 22 27 34 35 38 42 45 40 37 39 41 45 50 50 43 36 30 25 20 18 17 18 20 24 29
6 14 14 21 24 23 24 19 19 26 28 26 29 25 31 32 26 26 30 28 33 34 32 39 43 44 39 37 40 43 46 51 50 43 36 29 23 19 17 17 18 20 24 26
4 18 18 27 29 32 34 21 33 32 34 25 24 27 35 36 46 38 48 39 44 43 41 41 46 42 39 42 44 45 47 52 49 41 34 27 22 18 16 16 17 21 24 25
9 8 11 22 25 23 14 33 35 41 38 32 30 34 36 34 29 32 44 37 40 46 46 39 43 43 41 41 43 46 47 53 48 40 33 26 21 18 16 15 17 20 23 24
15 20 13 11 9 17 22 25 36 36 34 33 28 36 35 35 44 49 44 35 39 44 46 42 43 38 36 37 39 41 46 51 46 41 33 28 22 17 15 14 16 19 23 24
25 21 10 8 15 17 3 16 22 21 32 28 32 34 35 46 22 40 40 42 48 47 44 41 44 32 30 36 38 42 45 49 45 39 32 26 20 15 13 13 15 20 22 24
25 25 18 12 13 19 20 29 26 5 8 30 28 28 29 8 9 19 40 33 36 35 35 33 30 27 30 36 39 40 51 52 45 37 29 22 17 13 10 10 15 19 23 23
9 13 24 23 21 14 11 9 6 11 19 31 36 29 25 21 25 43 28 19 24 25 27 25 24 27 29 33 37 42 54 50 42 35 27 20 15 12 10 10 14 19 21 21
23 12 11 12 18 25 17 27 24 28 38 36 33 26 21 32 41 40 40 42 31 30 29 28 27 30 34 34 38 49 51 45 38 31 24 18 13 11 9 10 12 17 20 22
20 26 25 21 14 11 21 29 50 55 40 38 32 36 25 31 36 41 41 42 42 37 36 32 32 34 33 37 44 51 49 42 36 29 22 16 12 9 8 8 11 14 16 20
9 21 18 25 29 23 20 31 39 42 45 49 47 45 28 30 34 39 39 41 44 42 41 35 34 35 39 46 50 52 47 40 31 25 18 13 11 9 7 7 9 11 14 17
10 11 9 13 21 23 30 33 30 30 37 40 45 42 39 37 40 45 44 46 49 46 44 40 38 39 43 52 52 51 46 38 31 25 19 15 13 9 6 6 6 8 11 15
20 19 14 17 20 17 18 24 31 38 43 42 37 42 47 43 46 45 47 48 49 48 47 45 42 43 47 54 53 48 42 37 31 25 21 17 14 9 6 3 5 6 8 11
Wind_Direction
142 227 240 246 229 268 266 259 261 267 200 245 256 262 268 280 277 265 272 266 255 243 250 231 228 224 224 224 224 225 226 229 229 230 230 229 231 232 242 257 283 304 310 311
176 239 253 48 214 227 233 260 264 280 250 220 275 273 273 268 268 270 271 270 257 248 232 223 224 224 226 227 226 226 227 229 230 232 231 229 228 232 241 255 281 297 299 310
228 255 79 197 207 206 228 236 256 267 323 237 293 275 241 256 263 271 263 260 250 239 227 219 222 225 226 226 227 228 228 231 232 231 231 230 229 234 243 260 275 287 306 304
240 241 207 199 230 204 240 231 245 266 296 282 5 291 279 252 245 264 273 253 242 241 232 225 225 225 227 230 229 229 230 230 232 232 231 229 230 235 245 257 276 291 294 299
222 180 190 207 229 178 249 110 173 209 257 316 257 268 280 167 241 259 262 257 234 228 229 230 232 234 234 230 231 229 229 230 231 232 231 231 234 241 251 263 277 287 295 300
260 160 216 212 82 156 135 120 145 154 258 255 259 225 275 242 212 246 265 236 224 212 217 229 235 228 227 230 232 229 229 230 231 230 230 232 237 244 255 268 277 289 294 295
193 219 169 174 133 117 195 180 277 256 225 264 152 234 262 283 242 233 256 255 216 206 209 225 226 221 222 228 230 227 228 228 229 229 231 232 237 246 257 267 284 288 293 302
241 255 183 183 218 204 184 217 204 261 277 288 113 251 278 227 252 248 259 257 225 221 234 232 229 226 223 231 231 228 228 228 228 227 229 233 239 247 261 273 279 290 301 308
210 256 99 229 93 181 164 199 235 288 105 281 259 262 239 186 251 250 253 247 243 247 240 230 231 231 225 232 237 236 227 227 228 227 228 233 239 246 257 270 283 297 303 305
256 262 119 124 145 47 225 140 139 200 260 258 276 281 279 239 244 212 237 239 242 240 228 232 233 237 230 239 242 237 229 229 228 226 228 232 238 246 258 272 287 295 301 305
204 217 197 151 205 191 171 204 227 311 227 253 265 270 103 171 263 207 219 233 243 242 231 230 240 235 237 240 238 237 229 225 225 222 226 230 237 246 258 274 286 295 304 308
207 208 234 239 146 310 252 232 215 225 228 235 259 270 118 58 146 182 237 243 252 257 239 230 242 237 242 242 235 236 227 224 224 221 223 226 234 243 257 272 285 297 306 311
170 207 241 255 213 178 212 210 232 242 258 248 236 252 255 270 266 252 247 257 274 260 259 246 243 246 255 245 236 232 226 222 219 218 219 224 230 240 255 273 288 302 310 314
180 172 217 239 251 100 191 228 222 223 234 252 242 260 274 274 272 279 273 264 264 263 258 257 255 258 252 241 235 228 223 220 217 215 217 222 228 238 256 270 289 304 312 314
183 234 236 249 261 274 278 270 251 234 242 243 257 258 261 273 276 272 275 276 274 270 259 261 262 258 248 239 233 230 226 218 213 213 214 218 227 239 257 278 295 305 310 313
203 244 247 252 261 263 258 260 262 266 258 252 254 262 262 269 278 282 275 270 274 273 265 264 268 262 251 244 238 230 224 214 211 210 211 216 224 239 259 280 294 303 310 312
211 224 220 240 232 251 256 241 249 256 262 257 255 255 269 268 264 262 271 275 268 268 268 265 260 265 261 249 239 230 222 211 207 206 208 214 224 239 260 278 293 305 311 313
241 226 228 247 231 230 234 244 237 245 251 258 254 253 256 259 265 272 272 270 264 266 271 269 270 267 255 242 232 224 219 207 204 204 205 211 220 236 258 278 296 307 311 316
219 231 236 232 222 242 180 236 226 229 246 257 249 252 250 256 267 270 265 261 263 269 273 271 275 267 248 230 222 219 209 202 202 203 206 210 220 237 257 282 302 307 311 315
225 228 229 224 232 236 234 237 240 78 250 249 240 249 254 261 248 262 272 260 260 267 267 269 267 248 228 219 216 211 202 198 198 200 204 211 225 242 259 287 305 311 314 318
202 216 227 235 245 247 222 209 125 194 242 247 250 248 249 248 237 252 270 249 249 247 247 251 256 246 232 221 212 203 198 196 194 196 201 209 226 243 267 294 308 313 314 320
223 206 214 231 243 248 218 228 221 237 242 243 256 258 233 245 250 247 250 257 248 243 242 238 236 227 222 212 204 199 194 194 193 193 199 210 224 242 264 291 310 312 317 321
231 226 237 223 232 240 215 223 228 238 250 251 252 254 251 246 250 258 253 255 261 254 244 234 227 219 213 203 198 194 192 191 191 192 198 208 220 236 259 292 308 312 318 322
279 265 263 261 252 263 253 236 238 241 241 247 253 259 259 244 253 257 260 259 259 252 244 232 221 211 200 194 192 194 188 188 192 191 196 208 218 227 251 289 305 315 325 326
275 296 284 290 289 282 286 280 284 289 288 273 265 265 263 257 258 260 260 264 264 253 241 231 220 208 199 194 189 188 187 187 189 196 198 202 211 216 237 274 299 317 327 337
269 281 278 275 296 282 283 298 300 299 295 291 288 284 281 279 270 264 264 266 261 250 241 228 217 208 199 192 186 184 184 187 194 190 194 194 199 202 209 251 302 333 337 337